This is the latest recevied weather packets stored in our database for station/object OH6GKW. If no packets are shown the sender has not sent any weather packets the latest 10 day(s).
| Time | Temp. | Humidity | Pressure | Rain* | Wind** | Luminosity | Snow |
|---|---|---|---|---|---|---|---|
| 1777828420 | 7.22° C | 53% | 1005.7 hPa | 0.25 mm | - | 67 W/m² | - |
| 1777828118 | 7.22° C | 52% | 1005.7 hPa | 0.25 mm | - | 97 W/m² | - |
| 1777827817 | 7.22° C | 52% | 1005.7 hPa | 0.25 mm | - | 144 W/m² | - |
| 1777827510 | 7.22° C | 52% | 1005.7 hPa | 0.25 mm | - | 174 W/m² | - |
| 1777827237 | 7.22° C | 52% | 1005.7 hPa | 0.25 mm | - | 216 W/m² | - |
| 1777826926 | 7.22° C | 51% | 1005.7 hPa | 0.25 mm | - | 130 W/m² | - |
| 1777826622 | 7.22° C | 50% | 1005.7 hPa | 0.25 mm | - | 127 W/m² | - |
| 1777826318 | 7.22° C | 50% | 1005.7 hPa | 0.25 mm | - | 97 W/m² | - |
| 1777826015 | 7.78° C | 48% | 1005.7 hPa | 0.25 mm | - | 93 W/m² | - |
| 1777825725 | 7.78° C | 50% | 1005.7 hPa | 0.25 mm | - | 109 W/m² | - |
| 1777825418 | 7.78° C | 50% | 1005.7 hPa | 0.25 mm | - | 153 W/m² | - |
| 1777825110 | 8.33° C | 49% | 1005.7 hPa | 0.25 mm | - | 150 W/m² | - |
| 1777824822 | 8.33° C | 46% | 1005.9 hPa | 0.25 mm | - | 220 W/m² | - |
| 1777824517 | 7.78° C | 45% | 1005.9 hPa | 0.25 mm | - | 241 W/m² | - |
| 1777824212 | 8.33° C | 43% | 1005.9 hPa | 0.25 mm | - | 181 W/m² | - |
| 1777823933 | 8.33° C | 42% | 1005.9 hPa | 0.25 mm | - | 178 W/m² | - |
| 1777823626 | 8.33° C | 44% | 1005.9 hPa | 0.25 mm | - | 234 W/m² | - |
| 1777823318 | 8.33° C | 44% | 1005.9 hPa | 0.25 mm | - | 239 W/m² | - |
| 1777823010 | 8.89° C | 43% | 1005.9 hPa | 0.25 mm | - | 230 W/m² | - |
| 1777822717 | 8.89° C | 44% | 1005.9 hPa | 0.25 mm | - | 315 W/m² | - |
| 1777822412 | 8.89° C | 44% | 1005.9 hPa | 0.25 mm | - | 322 W/m² | - |
| 1777822123 | 8.89° C | 44% | 1005.9 hPa | 0.25 mm | - | 326 W/m² | - |
| 1777821820 | 8.89° C | 45% | 1005.9 hPa | 0.25 mm | - | 341 W/m² | - |
| 1777821512 | 8.89° C | 45% | 1005.9 hPa | 0.25 mm | - | 355 W/m² | - |
| 1777821211 | 8.89° C | 45% | 1006 hPa | 0.25 mm | - | 350 W/m² | - |
* Rain since midnight (hover to see other rain measurements)
** Current wind speed in m/s (hover to see current wind gust speed)